Regional Weather Roundup
Issued by NWS Charleston, SC

Current Version | Previous Version | Graphics & Text | Print | Product List | Glossary On
Versions: 1 2 3 4 5 6 7 8 9 10 11 12 13 14 15 16 17 18 19 20 21 22 23 24 25 26 27 28 29 30 31 32 33 34 35 36 37 38 39 40 41 42 43 44 45 46 47 48 49 50
000
ASUS42 KCHS 231325
RWRCHS

REGIONAL WEATHER ROUNDUP
NATIONAL WEATHER SERVICE CHARLESTON SC
900 AM EDT TUE SEP 23 2014

NOTE: "FAIR" INDICATES FEW OR NO CLOUDS BELOW 12,000 FEET WITH NO
SIGNIFICANT WEATHER AND/OR OBSTRUCTIONS TO VISIBILITY.

NOT ALL STATIONS ARE QUALITY CONTROLLED BY THE NATIONAL
WEATHER SERVICE. USE DATA WITH CAUTION...ESPECIALLY
DEWPOINT OBSERVATIONS.

SCZ027-030-031-034>040-042>050-231400-
...SOUTH CAROLINA...

CITY           SKY/WX    TMP DP  RH WIND       PRES   REMARKS
N CHARLESTON   LGT RAIN  67  64  90 N9        30.13S
WATERFRONT PRK NOT AVBL
FORT JOHNSON   NOT AVBL
MOUNT PLEASANT LGT RAIN  66  66 100 N3        30.14R
JOHNS ISLAND   RAIN      66  66 100 N5        30.13S
PINOPOLIS        N/A     68  63  83 N13       30.06R
MONCKS CORNER  DRIZZLE   66  66 100 N6        30.15R
SUMMERVILLE    PTSUNNY   64  64 100 N7        30.16S
BEAUFORT MCAS  HVY RAIN  67  64  90 VRB6      30.13R
BEAUFORT ARPT  LGT RAIN  68  64  88 NE13      30.14R
HILTON HEAD IS PTSUNNY   70  64  83 N12G21    30.13R
GEORGETOWN     NOT AVBL
WALTERBORO     DRIZZLE   66 N/A N/A NE6       30.16R
ORANGEBURG     CLOUDY    63  59  87 NE10      30.17R
BARNWELL       FAIR      64  63  94 N8        30.17R
AIKEN          FAIR      66  63  88 NE15G22   30.21R
MANNING        CLOUDY    64 N/A N/A N8        30.18R
KINGSTREE      NOT AVBL
COLUMBIA       CLOUDY    66  57  72 NE8       30.19R
SUMTER         PTSUNNY   63  60  88 N9        30.18R
FLORENCE       LGT RAIN  64  61  90 NE13      30.18F
MYRTLE BEACH   LGT RAIN  66  63  88 N9        30.16R FOG
N MYRTLE BEACH LGT RAIN  67  64  90 NE9       30.17R

$$

GAZ063-065-086>088-099>101-113>116-118-119-134-136>141-150-231400-
...GEORGIA...

CITY           SKY/WX    TMP DP  RH WIND       PRES   REMARKS
SAVANNAH ARPT  LGT RAIN  68  63  84 NE9       30.11S
HUNTER AAF     PTSUNNY   67  65  92 NE6       30.10R
FORT STEWART   PTSUNNY   68  63  85 N5        30.10R
STATESBORO     NOT AVBL
SYLVANIA       CLOUDY    68  67  98 N3        30.16R
CLAXTON        FAIR      68  68 100 CALM      30.13S
THOMSON        PTSUNNY   67  65  95 NE7       30.23R
AUGUSTA-BUSH   MOSUNNY   68  60  75 NE10      30.16R
AUGUSTA-DANIEL SUNNY     68  59  73 NE12      30.17R
SWAINSBORO     PTSUNNY   70  70 100 NE7       30.15R
VIDALIA        CLOUDY    66  64  94 E6        30.15R
ALMA           MOSUNNY   68  63  84 N7        30.12R
WAYCROSS       CLOUDY    74  65  74 NE12      30.11R
JESUP          FAIR      75  66  73 NE10      30.11R
BRUNSWICK      CLOUDY    68  64  88 N8        30.10S
SAINT SIMONS   LGT RAIN  68  67  96 N13       30.08R

$$

SCZ027-028-034-036>038-045-046-048>050-GAZ119-141-231400-
...LAKE AND SUPPLEMENTAL COASTAL OBSERVATIONS...

STATION/POSITION TIME  TEMP    WIND        PRES    WAVE   SWELL
                       AIR SEA DIR/SP/G            HT/PER HT/PER/DIR
                 (UTC) (F)     (DEG/KT/KT) (MB)    (FT/S) (FT/S/D)
UPR LAKE MARION  NOT AVBL
WINYAH BAY       1300   73      60/ 16     1020.0S
LAKE MURRAY      1200   64      20/  4/  6 1021.3R
ACE BASIN NERRS  1300   65      20/  3     1020.0S
FORT PULASKI     1300   71      10/ 11/ 16 1019.9R
SAPELO ISLAND    1300   69      20/  8     1019.0S

$$

ANZ835-935-AMZ111-154-330-350-352-354-374-450-454-472-231400-
...C-MAN AND BUOY OBSERVATIONS...

STATION/POSITION TIME  TEMP    WIND        PRES    WAVE   SWELL
                       AIR SEA DIR/SP/G            HT/PER HT/PER/DIR
                 (UTC) (F)     (DEG/KT/KT) (MB)    (FT/S) (FT/S/D)
FOLLY BEACH CMAN 1300   67     340/  7/ 10 1020.5R
BUOY 41004       1300   76 81   70/ 17/ 19 1018.9R   4/ 5   2/10
BUOY 41008       1300   73 82   40/ 17/ 19 1018.0R   4/ 6   2/110/ 8
5E ST. MARYS GA  1300      83                N/A     5/ 5
FRYING PAN BUOY  NOT AVBL
BUOY 41025       1300   75      20/ 19/ 25 1020.9R   6/ 7
CAPE LOOKOUT NC  1300   71      30/ 19/ 25 1021.6R
BUOY 41002       1239   78 81  350/  8/  8 1019.4R   3/ 8   3/100/ 8
BUOY 41010       1300   80 84  140/ 12/ 14 1017.2F   2/ 7   2/ 80/ 7
BUOY 41012       NOT AVBL
ST AUGUSTINE FL  1300   76      CALM  /  1 1017.6R
CAPERS NEARSHORE NOT AVBL
FRIPP NEARSHORE  NOT AVBL


$$



USA.gov is the U.S. government's official web portal to all federal, state and local government web resources and services.